Weather History for South Bend, IN

Change the Weather History Date:

Monday, December 1, 2014

  Actual Average Record
Temperature  
Mean Temperature 27 °F 34 °F  
Max Temperature 35 °F 40 °F 67 °F (1970)
Min Temperature 18 °F 27 °F 3 °F (1893)
Degree Days  
Heating Degree Days 38 31  
Month to date heating degree days 38 31  
Since 1 July heating degree days 1480 1300  
Cooling Degree Days 0 0  
Month to date cooling degree days 0 0  
Year to date cooling degree days 771 773  
Moisture  
Dew Point 18 °F    
Average Humidity 75    
Maximum Humidity 92    
Minimum Humidity 57    
Precipitation  
Precipitation 0.00 in 0.10 in 0.75 in (1910)
Month to date precipitation 0.00 0.10  
Year to date precipitation 39.97 35.49  
Snow  
Snow 0.00 in 0.40 in 7.60 in (1978)
Month to date snowfall 0.0 0.4  
Since 1 July snowfall 19.3 5.6  
Snow Depth 0.00 in    
Sea Level Pressure  
Sea Level Pressure 30.52 in    
Wind  
Wind Speed 13 mph (North)    
Max Wind Speed 23 mph    
Max Gust Speed 29 mph    
Visibility 10 miles    
Events      
T = Trace of Precipitation, MM = Missing Value Source: NWS Daily Summary

Daily Weather History Graph

Daily Weather History Graph

Search for Another Location

Airport:

Trip Planner

Search our weather history database for the weather conditions in past years. The results will help you decide how hot, cold, wet, or windy it might be!

Date:

Astronomy

Dec. 01, 2014 Rise Set
Actual Time 7:52 AM EST 5:15 PM EST
Civil Twilight 7:21 AM EST 5:46 PM EST
Nautical Twilight 6:47 AM EST 6:21 PM EST
Astronomical Twilight 6:13 AM EST 6:54 PM EST
Moon 2:24 PM EST (12/1) 2:24 AM EST (12/1)
Length of Visible Light 10h 24m
Length of Day
9h 22m
Waxing Gibbous, 75% of the Moon is Illuminated
Dec 1
Waxing Gibbous
Dec 6
Full
Dec 14
Last Quarter
Dec 21
New
Dec 28
First Quarter

Hourly Weather History & Observations

Time (EST) Temp. Windchill Dew Point Humidity Pressure Visibility Wind Dir Wind Speed Gust Speed Precip Events Conditions
12:51 AM 35.6 °F 27.5 °F 30.2 °F 81% 30.22 in 10.0 mi NNW 11.5 mph 23.0 mph N/A   Overcast
12:54 AM 35.1 °F 24.8 °F 30.0 °F 82% 30.24 in 10.0 mi NNW 17.3 mph - N/A   Overcast
1:54 AM 33.1 °F 22.2 °F 27.0 °F 78% 30.26 in 10.0 mi North 17.3 mph 24.2 mph N/A   Overcast
2:54 AM 32.0 °F 21.2 °F 27.0 °F 82% 30.31 in 10.0 mi North 16.1 mph - N/A   Overcast
3:54 AM 32.0 °F 22.5 °F 26.1 °F 79% 30.34 in 10.0 mi NNW 12.7 mph - N/A   Overcast
4:54 AM 30.0 °F 17.9 °F 23.0 °F 75% 30.37 in 10.0 mi NNW 18.4 mph 27.6 mph N/A   Overcast
5:54 AM 28.9 °F 17.3 °F 19.9 °F 69% 30.42 in 10.0 mi NNW 16.1 mph - N/A   Overcast
6:19 AM 28.0 °F 15.3 °F 18.0 °F 66% 30.41 in 10.0 mi NNW 18.4 mph 26.5 mph N/A   Scattered Clouds
6:54 AM 28.0 °F 16.1 °F 19.0 °F 69% 30.47 in 10.0 mi NNW 16.1 mph 24.2 mph N/A   Mostly Cloudy
7:54 AM 27.0 °F 14.7 °F 17.1 °F 66% 30.51 in 10.0 mi North 16.1 mph 26.5 mph N/A   Overcast
8:54 AM 27.0 °F 16.7 °F 17.1 °F 66% 30.53 in 10.0 mi NNW 11.5 mph - N/A   Mostly Cloudy
9:28 AM 27.0 °F 14.7 °F 16.0 °F 63% 30.52 in 10.0 mi NNW 16.1 mph - N/A   Scattered Clouds
9:54 AM 27.0 °F 16.1 °F 16.0 °F 63% 30.57 in 10.0 mi NNW 12.7 mph - N/A   Partly Cloudy
10:54 AM 28.0 °F 14.3 °F 15.1 °F 58% 30.59 in 10.0 mi North 21.9 mph - N/A   Clear
11:54 AM 28.0 °F 14.9 °F 15.1 °F 58% 30.59 in 10.0 mi NNW 19.6 mph 27.6 mph N/A   Scattered Clouds
12:54 PM 27.0 °F 14.7 °F 14.0 °F 58% 30.59 in 10.0 mi NNW 16.1 mph - N/A   Mostly Cloudy
1:24 PM 26.1 °F 13.1 °F 14.0 °F 60% 30.56 in 10.0 mi North 17.3 mph - N/A   Scattered Clouds
1:52 PM 24.8 °F 10.7 °F 15.8 °F 69% 30.57 in 10.0 mi North 19.6 mph - N/A   Mostly Cloudy
1:54 PM 25.0 °F 12.2 °F 15.1 °F 66% 30.60 in 10.0 mi North 16.1 mph - N/A   Mostly Cloudy
2:54 PM 24.1 °F 10.6 °F 14.0 °F 65% 30.62 in 10.0 mi NNW 17.3 mph - N/A   Overcast
3:54 PM 23.0 °F 9.6 °F 14.0 °F 68% 30.62 in 10.0 mi North 16.1 mph - N/A   Overcast
4:54 PM 24.1 °F 13.1 °F 16.0 °F 71% 30.63 in 10.0 mi North 11.5 mph - N/A   Overcast
5:54 PM 24.1 °F 12.5 °F 16.0 °F 71% 30.64 in 10.0 mi North 12.7 mph - N/A   Overcast
6:54 PM 23.0 °F 10.6 °F 16.0 °F 74% 30.64 in 10.0 mi North 13.8 mph - N/A   Mostly Cloudy
7:38 PM 21.9 °F 12.5 °F 15.1 °F 75% 30.61 in 10.0 mi NNE 8.1 mph - N/A   Partly Cloudy
7:54 PM 21.9 °F 11.7 °F 14.0 °F 72% 30.65 in 10.0 mi NNE 9.2 mph - N/A   Clear
8:54 PM 19.9 °F 13.4 °F 12.0 °F 71% 30.65 in 10.0 mi ENE 4.6 mph - N/A   Clear
9:54 PM 19.0 °F 13.9 °F 12.0 °F 74% 30.65 in 10.0 mi ENE 3.5 mph - N/A   Clear
10:54 PM 18.0 °F - 10.9 °F 74% 30.63 in 10.0 mi Calm Calm - N/A   Clear
11:54 PM 18.0 °F 11.1 °F 10.9 °F 74% 30.60 in 10.0 mi ENE 4.6 mph - N/A   Clear